Location: Molveno
(46.1500°N, 10.9667°E)
Time: 17:03:11
(UTC+00:00)

Cosmos 1727 Rocket - Pass Details

Date: 05 July 2020
Orbit: 962 x 996 km, 82.9° (Epoch: 10 August)

Event Time Altitude Azimuth Distance (km) Brightness Sun altitude
Rises 23:37:03 0° 348° (NNW) 3,672 8.4 -21.1°
Reaches altitude 10° 23:39:35 10° 345° (NNW) 2,725 7.4 -21.1°
Maximum altitude 23:45:43 61° 267° (W) 1,101 4.2 -21.0°
Enters shadow 23:48:07 37° 204° (SSW) 1,477 4.4 -20.9°
